Time,TemperatureF,DewpointF,PressureIn,WindDirection,WindDirectionDegrees,WindSpeedMPH,WindSpeedGustMPH,Humidity,HourlyPrecipIn,Conditions,Clouds,dailyrainin,SolarRadiationWatts/m^2,SoftwareType,DateUTC
2013-02-12 00:01:00,49.0,26.0,-100.00,SW,216,6.0,10.0,41,0.00,,,0.00,0.000000,,2013-02-12 08:01:00,
2013-02-12 00:52:00,48.0,26.0,-100.00,SW,228,6.0,9.0,42,0.00,,,0.00,0.000000,,2013-02-12 08:52:00,
2013-02-12 01:01:00,48.0,26.0,-100.00,SW,228,6.0,9.0,42,0.00,,,0.00,0.000000,,2013-02-12 09:01:00,
2013-02-12 01:21:00,48.0,26.0,-100.00,SW,228,6.0,9.0,42,0.00,,,0.00,0.000000,,2013-02-12 09:21:00,
2013-02-12 01:52:00,48.0,27.0,-100.00,SW,235,6.0,10.0,44,0.00,,,0.00,0.000000,,2013-02-12 09:52:00,
2013-02-12 02:01:00,48.0,27.0,-100.00,SW,235,6.0,10.0,44,0.00,,,0.00,0.000000,,2013-02-12 10:01:00,
2013-02-12 02:21:00,48.0,27.0,-100.00,SW,235,6.0,10.0,44,0.00,,,0.00,0.000000,,2013-02-12 10:21:00,
2013-02-12 02:52:00,48.0,28.0,-100.00,WSW,241,5.0,10.0,45,0.00,,,0.00,0.000000,,2013-02-12 10:52:00,
2013-02-12 03:01:00,48.0,28.0,-100.00,WSW,241,5.0,10.0,45,0.00,,,0.00,0.000000,,2013-02-12 11:01:00,
2013-02-12 03:52:00,48.0,27.0,-100.00,East,86,4.0,6.0,44,0.00,,,0.00,0.000000,,2013-02-12 11:52:00,
2013-02-12 04:01:00,48.0,27.0,-100.00,East,86,4.0,6.0,44,0.00,,,0.00,0.000000,,2013-02-12 12:01:00,
2013-02-12 04:21:00,48.0,27.0,-100.00,East,86,4.0,6.0,44,0.00,,,0.00,0.000000,,2013-02-12 12:21:00,
2013-02-12 04:52:00,48.0,26.0,-100.00,East,93,4.0,5.0,42,0.00,,,-99.99,0.000000,,2013-02-12 12:52:00,
2013-02-12 05:01:00,48.0,26.0,-100.00,East,93,4.0,5.0,42,0.00,,,-99.99,0.000000,,2013-02-12 13:01:00,
2013-02-12 05:11:00,48.0,26.0,-100.00,East,93,4.0,5.0,42,0.00,,,-99.99,0.000000,,2013-02-12 13:11:00,
2013-02-12 05:22:00,48.0,26.0,-100.00,East,93,4.0,5.0,42,0.00,,,-99.99,0.000000,,2013-02-12 13:22:00,
2013-02-12 05:52:00,47.0,27.0,-100.00,ESE,122,6.0,7.0,45,0.00,,,0.00,0.000000,,2013-02-12 13:52:00,
2013-02-12 06:01:00,47.0,27.0,-100.00,ESE,122,6.0,7.0,45,0.00,,,0.00,0.000000,,2013-02-12 14:01:00,
2013-02-12 06:52:00,47.0,26.0,-100.00,East,98,5.0,7.0,44,0.00,,,0.00,0.000000,,2013-02-12 14:52:00,
2013-02-12 07:01:00,47.0,26.0,-100.00,East,98,5.0,7.0,44,0.00,,,0.00,0.000000,,2013-02-12 15:01:00,
2013-02-12 07:21:00,47.0,26.0,-100.00,East,98,5.0,7.0,44,0.00,,,0.00,0.000000,,2013-02-12 15:21:00,
2013-02-12 07:52:00,45.0,27.0,-100.00,South,169,5.0,6.0,50,0.00,,,0.00,5.000000,,2013-02-12 15:52:00,
2013-02-12 08:01:00,45.0,27.0,-100.00,South,169,5.0,6.0,50,0.00,,,0.00,5.000000,,2013-02-12 16:01:00,
2013-02-12 08:52:00,49.0,31.0,-100.00,ESE,120,4.0,6.0,50,0.00,,,0.00,83.000000,,2013-02-12 16:52:00,
2013-02-12 09:01:00,49.0,31.0,-100.00,ESE,120,4.0,6.0,50,0.00,,,0.00,83.000000,,2013-02-12 17:01:00,
2013-02-12 09:21:00,49.0,31.0,-100.00,ESE,120,4.0,6.0,50,0.00,,,0.00,83.000000,,2013-02-12 17:21:00,
2013-02-12 09:52:00,52.0,33.0,-100.00,ESE,108,3.0,5.0,48,0.00,,,-99.99,280.000000,,2013-02-12 17:52:00,
2013-02-12 10:01:00,52.0,33.0,-100.00,ESE,108,3.0,5.0,48,0.00,,,-99.99,280.000000,,2013-02-12 18:01:00,
2013-02-12 10:52:00,48.0,38.0,-100.00,NE,49,6.0,7.0,68,0.00,,,0.00,450.000000,,2013-02-12 18:52:00,
2013-02-12 11:02:00,48.0,38.0,-100.00,NE,49,6.0,7.0,68,0.00,,,0.00,450.000000,,2013-02-12 19:02:00,
2013-02-12 11:11:00,48.0,38.0,-100.00,NE,49,6.0,7.0,68,0.00,,,0.00,450.000000,,2013-02-12 19:11:00,
2013-02-12 11:21:00,48.0,38.0,-100.00,NE,49,6.0,7.0,68,0.00,,,0.00,450.000000,,2013-02-12 19:21:00,
2013-02-12 11:52:00,49.0,32.0,-100.00,ENE,69,7.0,10.0,52,0.00,,,-99.99,561.000000,,2013-02-12 19:52:00,
2013-02-12 12:01:00,49.0,32.0,-100.00,ENE,69,7.0,10.0,52,0.00,,,-99.99,561.000000,,2013-02-12 20:01:00,
2013-02-12 12:11:00,49.0,32.0,-100.00,ENE,69,7.0,10.0,52,0.00,,,-99.99,561.000000,,2013-02-12 20:11:00,
2013-02-12 12:21:00,49.0,32.0,-100.00,ENE,69,7.0,10.0,52,0.00,,,-99.99,561.000000,,2013-02-12 20:21:00,
2013-02-12 12:52:00,51.0,37.0,-100.00,NE,56,5.0,10.0,58,0.00,,,0.00,614.000000,,2013-02-12 20:52:00,
2013-02-12 13:01:00,51.0,37.0,-100.00,NE,56,5.0,10.0,58,0.00,,,0.00,614.000000,,2013-02-12 21:01:00,
2013-02-12 13:11:00,51.0,37.0,-100.00,NE,56,5.0,10.0,58,0.00,,,0.00,614.000000,,2013-02-12 21:11:00,
2013-02-12 13:21:00,51.0,37.0,-100.00,NE,56,5.0,10.0,58,0.00,,,0.00,614.000000,,2013-02-12 21:21:00,
2013-02-12 13:52:00,52.0,39.0,-100.00,NE,44,8.0,11.0,60,0.00,,,0.00,611.000000,,2013-02-12 21:52:00,
2013-02-12 14:01:00,52.0,39.0,-100.00,NE,44,8.0,11.0,60,0.00,,,0.00,611.000000,,2013-02-12 22:01:00,
2013-02-12 14:12:00,52.0,39.0,-100.00,NE,44,8.0,11.0,60,0.00,,,0.00,611.000000,,2013-02-12 22:12:00,
2013-02-12 14:21:00,52.0,39.0,-100.00,NE,44,8.0,11.0,60,0.00,,,0.00,611.000000,,2013-02-12 22:21:00,
2013-02-12 14:52:00,53.0,37.0,-100.00,NE,38,8.0,11.0,55,0.00,,,0.00,528.000000,,2013-02-12 22:52:00,
2013-02-12 15:01:00,53.0,37.0,-100.00,NE,38,8.0,11.0,55,0.00,,,0.00,528.000000,,2013-02-12 23:01:00,
2013-02-12 15:11:00,53.0,37.0,-100.00,NE,38,8.0,11.0,55,0.00,,,0.00,528.000000,,2013-02-12 23:11:00,
2013-02-12 15:21:00,53.0,37.0,-100.00,NE,38,8.0,11.0,55,0.00,,,0.00,528.000000,,2013-02-12 23:21:00,
2013-02-12 15:52:00,54.0,35.0,-100.00,North,6,6.0,12.0,49,0.00,,,-99.99,432.000000,,2013-02-12 23:52:00,
2013-02-12 16:02:00,54.0,35.0,-100.00,North,6,6.0,12.0,49,0.00,,,-99.99,432.000000,,2013-02-13 00:02:00,
2013-02-12 16:11:00,54.0,35.0,-100.00,North,6,6.0,12.0,49,0.00,,,-99.99,432.000000,,2013-02-13 00:11:00,
2013-02-12 16:21:00,54.0,35.0,-100.00,North,6,6.0,12.0,49,0.00,,,-99.99,432.000000,,2013-02-13 00:21:00,
2013-02-12 16:52:00,52.0,33.0,-100.00,NNE,32,7.0,10.0,49,0.00,,,0.00,259.000000,,2013-02-13 00:52:00,
2013-02-12 17:01:00,52.0,33.0,-100.00,NNE,32,7.0,10.0,49,0.00,,,0.00,259.000000,,2013-02-13 01:01:00,
2013-02-12 17:11:00,52.0,33.0,-100.00,NNE,32,7.0,10.0,49,0.00,,,0.00,259.000000,,2013-02-13 01:11:00,
2013-02-12 17:21:00,52.0,33.0,-100.00,NNE,32,7.0,10.0,49,0.00,,,0.00,259.000000,,2013-02-13 01:21:00,
2013-02-12 18:11:00,50.0,32.0,-100.00,NE,43,8.0,10.0,49,0.00,,,0.00,81.000000,,2013-02-13 02:11:00,
2013-02-12 18:21:00,50.0,32.0,-100.00,NE,43,8.0,10.0,49,0.00,,,0.00,81.000000,,2013-02-13 02:21:00,
2013-02-12 18:52:00,48.0,30.0,-100.00,NE,39,9.0,11.0,50,0.00,,,0.00,4.000000,,2013-02-13 02:52:00,
2013-02-12 19:01:00,48.0,30.0,-100.00,NE,39,9.0,11.0,50,0.00,,,0.00,4.000000,,2013-02-13 03:01:00,
2013-02-12 19:11:00,48.0,30.0,-100.00,NE,39,9.0,11.0,50,0.00,,,0.00,4.000000,,2013-02-13 03:11:00,
2013-02-12 19:21:00,48.0,30.0,-100.00,NE,39,9.0,11.0,50,0.00,,,0.00,4.000000,,2013-02-13 03:21:00,
2013-02-12 19:52:00,48.0,33.0,-100.00,NE,38,9.0,10.0,55,0.00,,,0.00,0.000000,,2013-02-13 03:52:00,
2013-02-12 20:01:00,48.0,33.0,-100.00,NE,38,9.0,10.0,55,0.00,,,0.00,0.000000,,2013-02-13 04:01:00,
2013-02-12 20:11:00,48.0,33.0,-100.00,NE,38,9.0,10.0,55,0.00,,,0.00,0.000000,,2013-02-13 04:11:00,
2013-02-12 20:21:00,48.0,33.0,-100.00,NE,38,9.0,10.0,55,0.00,,,0.00,0.000000,,2013-02-13 04:21:00,
2013-02-12 20:52:00,48.0,33.0,-100.00,NE,38,7.0,11.0,55,0.00,,,0.00,0.000000,,2013-02-13 04:52:00,
2013-02-12 21:01:00,48.0,33.0,-100.00,NE,38,7.0,11.0,55,0.00,,,0.00,0.000000,,2013-02-13 05:01:00,
2013-02-12 21:11:00,48.0,33.0,-100.00,NE,38,7.0,11.0,55,0.00,,,0.00,0.000000,,2013-02-13 05:11:00,
2013-02-12 21:22:00,48.0,33.0,-100.00,NE,38,7.0,11.0,55,0.00,,,0.00,0.000000,,2013-02-13 05:22:00,
2013-02-12 21:52:00,48.0,30.0,-100.00,NNW,338,7.0,8.0,49,0.00,,,0.00,0.000000,,2013-02-13 05:52:00,
2013-02-12 22:02:00,48.0,30.0,-100.00,NNW,338,7.0,8.0,49,0.00,,,0.00,0.000000,,2013-02-13 06:02:00,
2013-02-12 22:11:00,48.0,30.0,-100.00,NNW,338,7.0,8.0,49,0.00,,,0.00,0.000000,,2013-02-13 06:11:00,
2013-02-12 22:21:00,48.0,30.0,-100.00,NNW,338,7.0,8.0,49,0.00,,,0.00,0.000000,,2013-02-13 06:21:00,
2013-02-12 22:52:00,48.0,33.0,-100.00,WNW,303,7.0,10.0,56,0.00,,,0.00,0.000000,,2013-02-13 06:52:00,
2013-02-12 23:02:00,48.0,33.0,-100.00,WNW,303,7.0,10.0,56,0.00,,,0.00,0.000000,,2013-02-13 07:02:00,
2013-02-12 23:11:00,48.0,33.0,-100.00,WNW,303,7.0,10.0,56,0.00,,,0.00,0.000000,,2013-02-13 07:11:00,
2013-02-12 23:21:00,48.0,33.0,-100.00,WNW,303,7.0,10.0,56,0.00,,,0.00,0.000000,,2013-02-13 07:21:00,
2013-02-12 23:52:00,47.0,32.0,-100.00,NW,315,10.0,15.0,55,0.00,,,0.00,0.000000,,2013-02-13 07:52:00,